SCP
0 0 0 0 0 0 0 0 0 0 0 0 0 0 0 0 0 0 0 0 0 0 0 0 0 0 0 0 0 0 0 0 0 0 0 0 0 -0 0 0 0 0 0
0 0 0 0 0 0 0 0 0 0 0 0 0 0 0 0 0 0 0 0 0 0 0 0 0 0 0 0 0 0 0 0 0 0 0 0 0 0 0 0 0 0 0
0 0 0 0 0 0 0 0 0 0 0 0 0 0 0 0 0 0 0 0 0 0 0 0 0 0 0 0 0 0 0 0 0 0 0 0 0 0 0 0 0 0 0
0 0 0 0 0 0 0 0 0 0 0 0 0 0 0 0 0 0 0 0 0 0 0 0 0 0 0 0 0 0 0 0 0 0 0 0 0 0 0 0 0 0 0
0 0 0 0 0 0 0 0 0 0 0 0 0 0 0 0 0 0 0 0 0 0 0 0 0 0 0 0 0 0 0 0 0 0 0 0 0 0 0 0 0 0 1
0 0 0 0 0 0 0 0 0 0 0 0 0 0 0 0 0 0 0 0 0 0 0 0 0 0 0 0 0 0 0 0 0 0 0 0 0 0 0 0 0 0 0
0 0 0 0 0 0 0 0 0 0 0 0 0 0 0 0 0 0 0 0 0 0 0 0 0 0 0 0 0 0 0 0 0 0 0 0 0 0 0 0 0 0 0
0 0 0 0 0 0 0 0 0 0 0 0 0 0 0 0 0 0 0 0 0 0 0 0 0 0 0 0 0 0 0 0 0 0 0 0 0 0 0 0 0 0 0
0 0 0 0 0 0 0 0 0 0 0 0 0 0 0 0 0 0 0 0 0 0 0 0 0 0 0 0 0 0 0 0 0 0 0 0 0 0 0 0 0 0 0
0 0 0 0 0 0 0 0 0 0 0 0 0 0 0 0 0 0 0 0 0 0 0 0 0 0 0 0 0 0 0 0 0 0 0 0 0 0 -0 -0 0 0 0
0 0 0 0 0 0 0 0 0 0 0 0 0 0 0 0 0 0 0 0 0 0 0 0 0 0 0 0 -0 0 0 0 0 0 0 0 0 -0 -0 0 0 0 -0
0 0 0 0 0 0 0 0 0 0 0 0 0 0 0 0 0 0 0 0 0 0 0 0 0 0 0 0 0 0 0 0 0 0 0 0 0 -0 -0 -0 -0 -0 -0
0 0 0 0 0 0 0 0 0 0 0 0 0 0 0 0 0 0 0 0 0 0 0 0 0 0 0 0 -0 0 0 0 0 0 0 0 0 0 -0 -0 -0 -0 -0
0 0 0 0 0 0 0 0 0 0 0 0 0 0 0 0 0 0 0 0 0 0 0 0 0 0 0 0 0 0 0 0 0 0 0 0 0 0 -0 -0 -0 -0 -0
0 0 0 0 0 0 0 0 0 0 0 0 0 0 0 0 0 0 0 0 0 0 0 0 0 0 -0 -0 0 0 0 0 0 0 0 0 0 0 0 -0 -0 -0 -0
0 0 0 0 0 0 0 0 0 0 0 0 0 0 0 0 0 0 0 0 0 0 0 0 0 -0 -0 -0 0 0 0 0 0 0 0 0 0 0 0 0 -0 -0 -0
0 0 0 0 0 0 0 0 0 0 0 0 0 0 0 0 0 0 0 0 0 0 0 0 0 0 0 0 0 0 0 0 0 0 0 0 0 0 0 0 0 0 -0
0 0 0 0 0 0 0 0 0 0 0 0 0 0 0 0 0 0 0 0 0 0 0 0 0 0 0 0 0 0 0 0 0 0 0 0 0 0 0 0 0 0 0
0 0 0 0 0 0 0 0 0 0 0 0 0 0 0 0 0 0 0 0 0 0 0 0 0 0 0 0 0 0 0 0 0 0 0 0 0 0 0 0 0 0 0
0 0 0 0 0 0 0 0 0 0 0 0 0 0 0 0 0 0 0 0 0 0 0 0 0 0 0 0 0 0 0 0 0 0 0 0 0 0 0 0 0 0 0
0 0 0 0 0 0 0 0 0 0 0 0 0 0 0 0 0 0 0 0 0 0 0 0 0 0 0 0 0 0 0 0 0 0 0 0 0 0 0 0 0 0 0
0 0 0 0 0 0 0 0 0 0 0 0 0 0 0 0 0 0 0 0 0 0 0 0 0 0 0 0 0 0 0 0 0 0 0 0 0 0 0 0 0 0 0
0 0 0 0 0 0 0 0 0 0 0 0 0 0 0 0 0 0 0 0 0 0 0 0 0 0 0 0 0 0 0 0 0 0 0 0 0 0 0 0 0 0 0
0 0 0 0 0 0 0 0 0 0 0 0 0 0 0 0 0 0 0 0 0 0 0 0 0 0 0 0 0 0 0 0 0 0 0 0 0 0 0 0 0 0 0
0 0 0 0 0 0 0 0 0 0 0 0 0 0 0 0 0 0 0 0 0 0 0 0 0 0 0 0 0 0 0 0 0 0 0 0 0 0 0 0 0 0 0
0 0 0 0 0 0 0 0 0 0 0 0 0 0 0 0 0 0 0 0 0 0 0 0 0 0 0 0 0 0 0 0 0 0 0 0 0 0 0 0 0 0 0
Wind_Speed_500mb
37 38 39 40 40 41 42 44 45 42 37 35 31 28 28 30 31 32 34 37 41 46 46 48 50 46 47 44 41 44 46 47 46 46 43 42 46 51 51 52 52 48 44
39 41 41 40 39 39 39 39 35 32 31 31 28 27 28 25 23 22 26 29 31 35 41 43 39 33 22 24 29 34 38 41 45 48 50 57 56 47 46 54 56 56 54
42 42 42 41 38 35 33 28 25 28 28 27 25 23 21 20 18 20 23 22 19 17 19 24 24 16 18 14 13 16 20 25 31 37 43 51 60 68 67 59 52 59 59
42 41 41 38 36 32 26 25 29 33 29 27 29 30 19 13 15 16 11 12 12 16 17 13 14 11 7 9 10 13 17 18 23 28 34 40 47 54 63 68 70 66 63
40 40 39 37 34 29 24 27 26 29 31 28 29 23 16 13 14 10 14 14 17 19 19 12 6 2 8 12 10 11 15 23 23 24 29 37 43 49 54 59 69 76 75
39 38 37 35 31 27 23 21 28 32 28 30 28 21 13 17 16 19 23 20 25 20 22 21 10 8 5 6 11 17 24 27 27 26 30 39 42 44 50 55 60 66 75
38 36 35 34 30 26 25 21 34 31 20 24 26 10 10 10 13 15 9 8 14 17 26 18 18 13 9 11 15 20 26 23 23 28 33 40 43 42 41 49 56 62 65
40 37 35 34 32 27 24 19 23 28 30 19 29 15 10 4 11 5 3 8 10 10 19 16 15 13 14 18 16 19 25 26 20 28 34 36 42 46 52 51 58 61 61
36 34 34 33 33 31 25 21 21 22 28 17 17 20 10 8 18 8 9 14 7 4 11 15 16 12 17 17 13 20 26 31 30 31 34 42 44 50 64 78 69 56 54
38 35 33 32 34 36 25 22 18 17 19 21 3 5 11 12 10 12 7 11 2 6 8 10 11 22 23 21 17 25 29 34 36 36 35 40 44 54 69 59 34 37 45
37 36 34 31 30 34 33 25 21 17 18 17 14 16 12 13 8 8 19 30 7 3 8 6 9 21 25 32 27 29 32 35 38 40 40 40 44 52 63 38 17 22 29
35 33 34 34 33 34 31 30 27 19 18 21 20 16 15 12 13 14 23 28 28 9 11 4 7 19 24 28 38 38 39 35 38 38 38 38 41 47 63 36 21 19 31
33 29 32 34 36 37 36 33 32 26 22 22 23 23 20 20 19 19 22 25 24 24 4 10 3 14 19 27 38 40 44 46 33 37 35 35 34 38 40 38 49 52 31
33 28 31 35 37 38 37 35 34 31 29 28 24 21 20 19 23 22 21 23 28 18 14 14 15 16 18 25 33 36 42 40 44 37 31 30 29 30 32 33 34 20 20
32 31 33 36 37 37 35 33 34 32 30 28 25 25 24 23 20 22 23 23 23 20 24 14 25 29 39 44 36 35 39 46 43 37 35 27 20 22 22 24 23 22 23
31 32 33 35 38 37 36 35 34 31 32 29 28 28 28 27 24 22 22 26 26 29 33 30 38 46 45 45 34 38 43 42 40 37 29 34 26 14 16 14 11 8 7
34 34 34 35 36 36 36 37 37 35 34 33 31 32 32 30 30 27 24 25 29 28 40 45 40 36 35 35 31 24 18 28 30 36 36 22 25 26 14 13 10 9 9
37 38 37 36 35 35 36 38 40 39 39 36 35 36 35 33 35 31 29 29 28 26 32 42 34 29 33 32 33 25 21 21 23 30 23 29 29 22 22 16 10 9 8
33 33 34 34 34 34 35 36 40 40 40 39 39 39 37 36 37 36 37 37 34 32 32 38 44 37 37 34 36 27 21 26 24 24 24 20 24 30 22 14 11 9 9
30 29 29 31 32 33 35 38 41 41 41 42 42 41 40 39 39 38 40 42 41 41 40 42 44 44 43 38 38 38 31 27 30 31 30 21 18 22 23 14 8 7 10
30 31 31 29 30 31 32 35 38 40 41 42 41 42 42 40 41 40 42 40 42 47 48 50 51 51 47 42 40 40 39 32 22 31 29 29 17 17 22 19 17 7 6
30 30 30 32 31 30 30 31 35 40 41 42 44 44 44 45 45 43 43 43 42 44 46 49 52 52 49 45 43 41 40 38 36 27 24 20 21 24 24 22 19 17 7
35 34 32 32 33 33 33 35 35 38 41 41 42 44 46 45 44 44 43 43 45 43 44 44 48 46 46 38 39 44 43 42 41 35 38 37 28 26 28 26 25 21 19
37 38 36 35 35 33 32 32 35 40 43 43 42 44 46 45 42 42 44 47 48 47 45 45 49 49 46 39 41 40 43 47 47 40 39 44 31 29 26 27 27 25 24
36 36 38 38 36 35 34 32 33 35 37 38 38 38 40 43 41 38 42 48 50 51 47 48 50 53 49 45 42 44 45 45 47 43 32 36 37 31 29 28 29 30 29
39 37 35 33 34 35 34 33 35 37 39 38 35 32 30 33 35 34 37 42 50 50 46 47 48 53 53 47 43 43 45 47 48 51 37 36 38 29 18 25 29 33 31
Wind_Direction_500mb
331 329 327 324 321 317 317 317 315 313 312 312 310 300 296 293 289 284 276 266 261 267 270 272 276 283 284 281 273 269 269 270 268 266 269 273 268 264 260 259 259 254 248
333 333 332 330 326 326 326 323 324 329 327 322 319 306 301 300 299 303 294 286 278 271 272 273 278 287 297 299 279 274 274 274 273 266 264 262 265 267 265 261 259 257 254
336 337 336 333 332 334 335 339 346 338 332 331 327 322 314 315 296 305 309 305 302 301 280 276 283 289 322 342 329 318 304 293 289 285 276 269 264 264 265 266 266 259 255
337 338 338 336 335 342 340 338 342 337 337 337 332 334 323 337 324 320 342 350 343 329 321 295 272 314 349 359 353 331 326 299 283 286 287 286 280 272 266 261 258 260 257
337 339 339 337 335 338 339 343 341 329 335 329 338 341 321 1 355 21 23 25 23 12 16 11 309 47 12 15 340 333 304 304 305 308 308 304 297 290 281 272 264 257 253
337 339 338 335 329 328 331 329 323 319 323 324 342 1 66 70 51 49 38 39 37 35 27 31 45 57 34 311 316 320 318 316 312 308 313 319 314 299 290 281 271 263 255
338 337 334 335 329 320 320 316 325 340 352 338 353 78 63 80 30 63 50 38 35 40 30 37 47 31 347 344 339 341 343 336 338 325 318 317 320 316 298 293 280 269 260
339 338 337 337 331 312 319 317 334 344 346 0 3 13 22 52 73 147 285 349 23 41 51 35 10 346 3 352 354 1 4 3 343 350 345 328 316 309 305 297 284 267 260
333 335 336 336 337 328 327 331 333 337 340 6 34 16 350 346 345 196 255 315 320 66 55 40 0 355 341 348 349 357 1 356 349 350 352 346 339 332 315 297 280 261 256
330 332 335 335 335 336 326 319 320 322 328 335 93 343 348 329 340 323 242 346 154 143 78 22 351 347 336 333 341 351 351 349 346 345 346 345 340 342 337 323 274 248 250
322 322 328 332 333 332 330 321 314 307 309 307 314 319 317 317 303 307 309 342 106 218 150 21 316 334 341 327 334 348 348 343 342 349 347 348 355 350 350 335 297 257 241
314 313 316 323 326 326 329 328 315 304 297 292 298 292 285 285 280 287 302 319 329 46 142 359 306 321 336 345 340 342 344 340 336 350 348 348 351 1 26 17 340 270 240
310 304 303 310 316 318 320 322 323 317 308 294 293 301 275 273 273 278 287 306 316 335 165 79 271 307 324 326 327 329 333 336 337 347 349 350 348 358 359 18 34 56 144
309 302 298 301 306 308 309 311 309 309 308 305 300 300 308 292 271 268 273 288 303 308 291 253 251 272 308 323 323 326 325 336 341 342 353 348 344 355 4 36 53 105 97
310 303 297 295 295 297 299 301 302 304 297 295 293 291 299 307 304 272 269 270 277 293 298 237 281 266 291 298 293 303 311 317 331 341 349 356 346 346 355 20 38 46 74
307 305 303 299 295 294 296 296 297 298 295 296 291 288 291 294 299 301 279 267 263 266 271 273 278 287 297 307 296 282 286 302 323 333 347 346 354 337 343 355 10 23 52
302 303 305 303 299 296 295 294 294 293 293 293 289 287 286 288 290 291 297 278 264 261 269 280 288 308 323 329 325 325 316 298 315 322 328 341 343 355 337 334 339 331 319
300 301 300 300 300 295 292 293 292 292 292 291 290 286 286 286 285 286 289 291 286 289 279 288 305 315 324 328 328 324 321 308 311 311 320 330 334 341 344 330 316 312 303
306 302 300 299 297 294 290 290 290 290 290 291 289 285 286 285 284 287 286 285 286 287 288 291 300 308 313 316 322 324 300 304 296 298 300 304 315 318 330 336 340 319 302
317 313 307 302 298 296 293 291 289 289 289 288 287 285 286 284 284 286 283 282 282 280 281 283 288 296 299 306 307 317 315 287 281 288 292 299 304 306 308 322 333 334 321
333 327 320 313 306 301 297 293 289 289 288 287 285 283 283 283 284 283 283 282 278 275 277 278 281 286 290 294 296 302 304 312 308 295 287 290 297 299 300 301 308 312 300
343 334 326 320 316 311 305 297 292 290 288 288 289 287 286 284 282 281 281 282 280 279 278 278 280 282 287 289 288 290 292 298 305 306 297 283 278 290 295 297 296 297 268
349 345 340 333 326 318 307 299 294 289 289 289 289 289 288 285 284 283 281 278 277 277 278 282 281 282 285 290 286 282 281 285 289 292 287 289 276 280 281 281 280 277 280
350 348 346 341 334 333 324 313 302 295 293 293 292 291 289 287 284 283 281 278 279 279 278 279 278 281 281 282 279 280 275 274 278 282 284 281 282 282 274 268 271 272 272
340 342 345 344 341 340 334 326 318 313 309 308 303 296 292 288 288 283 279 279 279 278 280 279 277 278 278 275 272 272 270 271 276 278 276 274 277 277 274 267 262 264 266
330 331 331 336 339 339 340 336 332 327 324 321 320 317 307 297 292 288 284 283 283 286 286 281 274 271 273 271 265 266 273 266 270 282 284 261 265 264 275 267 257 256 258
Wind_Speed_850mb
37 38 39 40 40 41 42 44 45 42 37 35 31 28 28 30 31 32 34 37 41 46 46 48 50 46 47 44 41 44 46 47 46 46 43 42 46 51 51 52 52 48 44
39 41 41 40 39 39 39 39 35 32 31 31 28 27 28 25 23 22 26 29 31 35 41 43 39 33 22 24 29 34 38 41 45 48 50 57 56 47 46 54 56 56 54
42 42 42 41 38 35 33 28 25 28 28 27 25 23 21 20 18 20 23 22 19 17 19 24 24 16 18 14 13 16 20 25 31 37 43 51 60 68 67 59 52 59 59
42 41 41 38 36 32 26 25 29 33 29 27 29 30 19 13 15 16 11 12 12 16 17 13 14 11 7 9 10 13 17 18 23 28 34 40 47 54 63 68 70 66 63
40 40 39 37 34 29 24 27 26 29 31 28 29 23 16 13 14 10 14 14 17 19 19 12 6 2 8 12 10 11 15 23 23 24 29 37 43 49 54 59 69 76 75
39 38 37 35 31 27 23 21 28 32 28 30 28 21 13 17 16 19 23 20 25 20 22 21 10 8 5 6 11 17 24 27 27 26 30 39 42 44 50 55 60 66 75
38 36 35 34 30 26 25 21 34 31 20 24 26 10 10 10 13 15 9 8 14 17 26 18 18 13 9 11 15 20 26 23 23 28 33 40 43 42 41 49 56 62 65
40 37 35 34 32 27 24 19 23 28 30 19 29 15 10 4 11 5 3 8 10 10 19 16 15 13 14 18 16 19 25 26 20 28 34 36 42 46 52 51 58 61 61
36 34 34 33 33 31 25 21 21 22 28 17 17 20 10 8 18 8 9 14 7 4 11 15 16 12 17 17 13 20 26 31 30 31 34 42 44 50 64 78 69 56 54
38 35 33 32 34 36 25 22 18 17 19 21 3 5 11 12 10 12 7 11 2 6 8 10 11 22 23 21 17 25 29 34 36 36 35 40 44 54 69 59 34 37 45
37 36 34 31 30 34 33 25 21 17 18 17 14 16 12 13 8 8 19 30 7 3 8 6 9 21 25 32 27 29 32 35 38 40 40 40 44 52 63 38 17 22 29
35 33 34 34 33 34 31 30 27 19 18 21 20 16 15 12 13 14 23 28 28 9 11 4 7 19 24 28 38 38 39 35 38 38 38 38 41 47 63 36 21 19 31
33 29 32 34 36 37 36 33 32 26 22 22 23 23 20 20 19 19 22 25 24 24 4 10 3 14 19 27 38 40 44 46 33 37 35 35 34 38 40 38 49 52 31
33 28 31 35 37 38 37 35 34 31 29 28 24 21 20 19 23 22 21 23 28 18 14 14 15 16 18 25 33 36 42 40 44 37 31 30 29 30 32 33 34 20 20
32 31 33 36 37 37 35 33 34 32 30 28 25 25 24 23 20 22 23 23 23 20 24 14 25 29 39 44 36 35 39 46 43 37 35 27 20 22 22 24 23 22 23
31 32 33 35 38 37 36 35 34 31 32 29 28 28 28 27 24 22 22 26 26 29 33 30 38 46 45 45 34 38 43 42 40 37 29 34 26 14 16 14 11 8 7
34 34 34 35 36 36 36 37 37 35 34 33 31 32 32 30 30 27 24 25 29 28 40 45 40 36 35 35 31 24 18 28 30 36 36 22 25 26 14 13 10 9 9
37 38 37 36 35 35 36 38 40 39 39 36 35 36 35 33 35 31 29 29 28 26 32 42 34 29 33 32 33 25 21 21 23 30 23 29 29 22 22 16 10 9 8
33 33 34 34 34 34 35 36 40 40 40 39 39 39 37 36 37 36 37 37 34 32 32 38 44 37 37 34 36 27 21 26 24 24 24 20 24 30 22 14 11 9 9
30 29 29 31 32 33 35 38 41 41 41 42 42 41 40 39 39 38 40 42 41 41 40 42 44 44 43 38 38 38 31 27 30 31 30 21 18 22 23 14 8 7 10
30 31 31 29 30 31 32 35 38 40 41 42 41 42 42 40 41 40 42 40 42 47 48 50 51 51 47 42 40 40 39 32 22 31 29 29 17 17 22 19 17 7 6
30 30 30 32 31 30 30 31 35 40 41 42 44 44 44 45 45 43 43 43 42 44 46 49 52 52 49 45 43 41 40 38 36 27 24 20 21 24 24 22 19 17 7
35 34 32 32 33 33 33 35 35 38 41 41 42 44 46 45 44 44 43 43 45 43 44 44 48 46 46 38 39 44 43 42 41 35 38 37 28 26 28 26 25 21 19
37 38 36 35 35 33 32 32 35 40 43 43 42 44 46 45 42 42 44 47 48 47 45 45 49 49 46 39 41 40 43 47 47 40 39 44 31 29 26 27 27 25 24
36 36 38 38 36 35 34 32 33 35 37 38 38 38 40 43 41 38 42 48 50 51 47 48 50 53 49 45 42 44 45 45 47 43 32 36 37 31 29 28 29 30 29
39 37 35 33 34 35 34 33 35 37 39 38 35 32 30 33 35 34 37 42 50 50 46 47 48 53 53 47 43 43 45 47 48 51 37 36 38 29 18 25 29 33 31
Wind_Direction_850mb
331 329 327 324 321 317 317 317 315 313 312 312 310 300 296 293 289 284 276 266 261 267 270 272 276 283 284 281 273 269 269 270 268 266 269 273 268 264 260 259 259 254 248
333 333 332 330 326 326 326 323 324 329 327 322 319 306 301 300 299 303 294 286 278 271 272 273 278 287 297 299 279 274 274 274 273 266 264 262 265 267 265 261 259 257 254
336 337 336 333 332 334 335 339 346 338 332 331 327 322 314 315 296 305 309 305 302 301 280 276 283 289 322 342 329 318 304 293 289 285 276 269 264 264 265 266 266 259 255
337 338 338 336 335 342 340 338 342 337 337 337 332 334 323 337 324 320 342 350 343 329 321 295 272 314 349 359 353 331 326 299 283 286 287 286 280 272 266 261 258 260 257
337 339 339 337 335 338 339 343 341 329 335 329 338 341 321 1 355 21 23 25 23 12 16 11 309 47 12 15 340 333 304 304 305 308 308 304 297 290 281 272 264 257 253
337 339 338 335 329 328 331 329 323 319 323 324 342 1 66 70 51 49 38 39 37 35 27 31 45 57 34 311 316 320 318 316 312 308 313 319 314 299 290 281 271 263 255
338 337 334 335 329 320 320 316 325 340 352 338 353 78 63 80 30 63 50 38 35 40 30 37 47 31 347 344 339 341 343 336 338 325 318 317 320 316 298 293 280 269 260
339 338 337 337 331 312 319 317 334 344 346 0 3 13 22 52 73 147 285 349 23 41 51 35 10 346 3 352 354 1 4 3 343 350 345 328 316 309 305 297 284 267 260
333 335 336 336 337 328 327 331 333 337 340 6 34 16 350 346 345 196 255 315 320 66 55 40 0 355 341 348 349 357 1 356 349 350 352 346 339 332 315 297 280 261 256
330 332 335 335 335 336 326 319 320 322 328 335 93 343 348 329 340 323 242 346 154 143 78 22 351 347 336 333 341 351 351 349 346 345 346 345 340 342 337 323 274 248 250
322 322 328 332 333 332 330 321 314 307 309 307 314 319 317 317 303 307 309 342 106 218 150 21 316 334 341 327 334 348 348 343 342 349 347 348 355 350 350 335 297 257 241
314 313 316 323 326 326 329 328 315 304 297 292 298 292 285 285 280 287 302 319 329 46 142 359 306 321 336 345 340 342 344 340 336 350 348 348 351 1 26 17 340 270 240
310 304 303 310 316 318 320 322 323 317 308 294 293 301 275 273 273 278 287 306 316 335 165 79 271 307 324 326 327 329 333 336 337 347 349 350 348 358 359 18 34 56 144
309 302 298 301 306 308 309 311 309 309 308 305 300 300 308 292 271 268 273 288 303 308 291 253 251 272 308 323 323 326 325 336 341 342 353 348 344 355 4 36 53 105 97
310 303 297 295 295 297 299 301 302 304 297 295 293 291 299 307 304 272 269 270 277 293 298 237 281 266 291 298 293 303 311 317 331 341 349 356 346 346 355 20 38 46 74
307 305 303 299 295 294 296 296 297 298 295 296 291 288 291 294 299 301 279 267 263 266 271 273 278 287 297 307 296 282 286 302 323 333 347 346 354 337 343 355 10 23 52
302 303 305 303 299 296 295 294 294 293 293 293 289 287 286 288 290 291 297 278 264 261 269 280 288 308 323 329 325 325 316 298 315 322 328 341 343 355 337 334 339 331 319
300 301 300 300 300 295 292 293 292 292 292 291 290 286 286 286 285 286 289 291 286 289 279 288 305 315 324 328 328 324 321 308 311 311 320 330 334 341 344 330 316 312 303
306 302 300 299 297 294 290 290 290 290 290 291 289 285 286 285 284 287 286 285 286 287 288 291 300 308 313 316 322 324 300 304 296 298 300 304 315 318 330 336 340 319 302
317 313 307 302 298 296 293 291 289 289 289 288 287 285 286 284 284 286 283 282 282 280 281 283 288 296 299 306 307 317 315 287 281 288 292 299 304 306 308 322 333 334 321
333 327 320 313 306 301 297 293 289 289 288 287 285 283 283 283 284 283 283 282 278 275 277 278 281 286 290 294 296 302 304 312 308 295 287 290 297 299 300 301 308 312 300
343 334 326 320 316 311 305 297 292 290 288 288 289 287 286 284 282 281 281 282 280 279 278 278 280 282 287 289 288 290 292 298 305 306 297 283 278 290 295 297 296 297 268
349 345 340 333 326 318 307 299 294 289 289 289 289 289 288 285 284 283 281 278 277 277 278 282 281 282 285 290 286 282 281 285 289 292 287 289 276 280 281 281 280 277 280
350 348 346 341 334 333 324 313 302 295 293 293 292 291 289 287 284 283 281 278 279 279 278 279 278 281 281 282 279 280 275 274 278 282 284 281 282 282 274 268 271 272 272
340 342 345 344 341 340 334 326 318 313 309 308 303 296 292 288 288 283 279 279 279 278 280 279 277 278 278 275 272 272 270 271 276 278 276 274 277 277 274 267 262 264 266
330 331 331 336 339 339 340 336 332 327 324 321 320 317 307 297 292 288 284 283 283 286 286 281 274 271 273 271 265 266 273 266 270 282 284 261 265 264 275 267 257 256 258